This is the latest recevied weather packets stored in our database for station/object KLRF. If no packets are shown the sender has not sent any weather packets the latest 10 day(s).
| Time | Temp. | Humidity | Pressure | Rain* | Wind** | Luminosity | Snow |
|---|---|---|---|---|---|---|---|
| 1778158419 | 8.89° C | 100% | 1017.9 hPa | - | - | - | - |
| 1778157812 | 8.89° C | 100% | 1017.9 hPa | - | - | - | - |
| 1778157216 | 8.89° C | 100% | 1017.9 hPa | - | - | - | - |
| 1778156614 | 8.89° C | 100% | 1017.9 hPa | - | - | - | - |
| 1778156013 | 8.89° C | 100% | 1017.9 hPa | - | - | - | - |
| 1778155415 | 8.89° C | 93% | 1017.3 hPa | - | - | - | - |
| 1778154812 | 8.89° C | 93% | 1017.3 hPa | - | - | - | - |
| 1778154214 | 7.78° C | 100% | 1017.6 hPa | - | - | - | - |
| 1778153615 | 7.78° C | 100% | 1017.6 hPa | - | - | - | - |
| 1778153017 | 8.89° C | 93% | 1017.3 hPa | - | - | - | - |
| 1778152417 | 8.89° C | 93% | 1017.3 hPa | - | - | - | - |
| 1778151813 | 8.89° C | 93% | 1017.3 hPa | - | - | - | - |
| 1778151211 | 7.78° C | 100% | 1016.9 hPa | - | - | - | - |
| 1778150613 | 8.89° C | 93% | 1016.9 hPa | - | - | - | - |
| 1778150015 | 8.89° C | 93% | 1016.9 hPa | - | - | - | - |
| 1778149415 | 10° C | 93% | 1016.6 hPa | - | - | - | - |
| 1778148813 | 10° C | 93% | 1016.6 hPa | - | - | - | - |
| 1778148215 | 10° C | 93% | 1017.3 hPa | - | - | - | - |
| 1778147614 | 10° C | 93% | 1016.9 hPa | - | - | - | - |
| 1778147014 | 8.89° C | 100% | 1017.3 hPa | - | - | - | - |
| 1778146417 | 10° C | 93% | 1016.9 hPa | - | - | - | - |
| 1778145815 | 10° C | 93% | 1016.9 hPa | - | - | - | - |
| 1778145211 | 10° C | 93% | 1016.9 hPa | - | - | - | - |
| 1778144616 | 10.56° C | 93% | 1016.6 hPa | - | - | - | - |
| 1778144012 | 10.56° C | 93% | 1016.6 hPa | - | - | - | - |
* Rain since midnight (hover to see other rain measurements)
** Current wind speed in m/s (hover to see current wind gust speed)